Helicity
29 5 -32 -19 2 45 -38 -6 20 62 42 -9 8 19 55 119 252 281 257 314 366 340 352 378 363 339 291 246 223 182 227 193 159 108 43 54 87 100 103 108 96 105 118 123
18 15 22 -25 27 -14 -10 -5 22 24 49 -11 44 56 51 55 67 246 238 288 315 342 319 299 276 263 288 289 185 221 182 184 169 168 165 180 199 192 83 86 125 128 121 127
-35 23 42 11 -28 24 0 -6 42 16 -9 -5 48 76 125 130 162 181 121 263 362 400 351 215 188 146 156 167 128 139 138 147 156 151 144 156 159 162 171 176 172 204 165 122
-45 -33 -26 -1 62 -6 20 41 26 23 4 26 119 178 216 195 257 261 289 196 108 242 407 117 124 94 79 94 96 121 141 147 158 163 154 147 142 154 155 157 156 149 154 169
-50 -39 -5 30 55 51 32 103 16 25 0 113 158 238 366 291 251 186 168 143 235 122 47 55 54 42 37 60 79 101 127 149 147 131 129 141 145 138 144 143 142 154 157 165
29 -16 -37 -5 92 139 17 68 65 35 20 154 199 212 223 265 268 196 105 86 96 34 32 47 78 62 62 75 81 98 95 99 111 115 135 147 139 130 130 132 132 129 136 141
29 17 19 35 -32 -33 -1 47 1 26 21 134 179 200 283 108 149 88 60 45 34 32 55 73 80 66 77 86 102 87 80 77 91 95 98 120 122 134 140 129 113 115 111 105
41 32 20 39 64 52 38 39 13 172 203 308 267 348 283 226 231 205 104 91 86 70 88 110 122 95 101 119 109 92 90 102 108 128 102 106 98 97 123 106 123 126 118 106
21 35 45 37 9 68 116 55 9 58 168 339 402 311 272 212 215 138 127 99 90 94 116 127 144 144 131 129 115 113 120 142 156 164 175 179 194 180 151 147 126 123 116 114
32 67 59 36 60 96 175 240 167 104 64 147 178 118 123 79 76 71 62 88 86 87 95 121 132 152 150 148 132 147 174 175 173 201 224 234 242 266 261 243 217 199 185 171
13 42 79 107 91 86 123 161 183 189 186 182 119 139 65 81 85 65 71 100 122 115 120 139 134 153 161 140 121 130 143 149 157 155 162 202 242 230 234 256 183 138 134 122
45 42 59 91 111 130 147 124 95 127 149 150 112 132 95 104 87 66 87 102 109 111 126 149 175 185 170 150 111 102 111 107 109 97 82 64 53 95 227 230 246 253 225 152
31 74 63 64 112 113 130 91 95 81 84 108 122 97 94 98 100 106 132 136 147 154 165 175 190 210 208 176 139 142 138 128 121 130 119 105 92 81 81 111 209 259 251 239
28 -40 25 52 16 13 13 55 61 34 53 64 68 93 91 101 117 147 158 141 134 174 199 187 197 212 178 165 158 157 149 161 133 128 121 125 124 119 105 110 122 146 169 192
36 46 36 21 20 17 -3 4 26 40 44 73 83 88 81 103 129 142 134 131 158 196 205 190 191 193 140 124 135 136 127 123 120 120 119 117 107 106 104 112 119 117 120 129
18 43 46 47 44 39 21 27 36 43 63 69 81 102 120 138 151 163 173 180 164 174 174 173 175 158 135 120 125 121 111 108 110 103 101 105 102 101 103 105 114 129 151 161
25 38 40 51 53 57 71 70 64 67 77 80 93 110 120 132 165 180 187 174 164 169 156 150 141 121 113 101 92 84 82 85 93 97 100 95 95 97 93 95 99 116 136 143
86 100 118 89 65 57 73 90 98 102 104 106 118 141 153 149 134 136 131 126 142 149 142 110 71 80 86 75 68 66 70 74 86 90 89 100 100 97 97 96 103 106 107 138
107 106 100 100 86 78 73 84 99 104 110 115 153 160 141 133 117 105 100 130 132 117 112 76 79 80 92 94 84 81 89 97 108 115 108 112 117 103 102 99 99 101 98 97
119 127 123 130 135 117 115 111 116 134 123 123 119 127 120 100 76 71 49 70 51 31 40 63 67 79 81 94 94 86 97 108 103 105 104 102 105 109 102 110 95 86 80 72
129 125 128 134 141 135 116 96 102 111 100 104 99 77 60 49 50 25 58 62 76 70 72 86 84 82 87 96 109 110 115 121 122 107 101 98 108 108 108 100 95 71 60 52
126 133 131 121 121 122 110 100 93 80 70 55 34 20 28 30 32 42 40 58 68 93 88 92 94 110 108 124 107 117 116 113 107 100 110 108 114 111 95 79 73 56 46 44
120 117 113 111 101 83 70 64 56 51 50 47 45 49 61 60 62 72 79 88 88 96 93 93 94 112 118 112 113 113 113 111 116 110 99 89 77 67 59 52 47 48 53 57
75 75 77 60 51 55 70 46 50 51 48 49 45 32 48 55 69 68 72 81 89 98 97 92 103 106 102 95 97 95 101 97 91 81 76 70 60 52 50 46 45 46 53 57
33 27 18 14 23 29 37 49 64 63 56 51 46 44 36 37 39 23 37 44 62 77 77 78 83 87 81 80 78 74 68 61 55 54 49 48 46 45 43 44 45 54 60 59
32 41 49 58 64 62 71 72 73 75 81 71 62 57 60 61 58 59 60 60 61 62 70 59 64 66 65 64 60 54 50 47 48 43 42 43 51 56 59 61 61 62 68 67
95 89 86 89 89 85 86 91 96 97 90 96 80 60 56 52 59 62 68 64 64 63 63 58 59 55 56 53 55 57 53 50 53 59 63 65 72 73 75 72 69 68 67 64
Wind_Speed
53 53 49 52 56 60 59 59 54 49 53 57 53 51 40 25 21 17 15 13 11 9 12 13 15 19 21 26 31 29 25 27 32 38 29 17 19 22 24 23 24 24 22 23
56 52 59 64 66 65 68 69 68 64 70 68 39 27 32 28 19 18 14 14 13 12 13 14 17 21 25 28 32 29 28 30 33 35 36 36 38 41 41 33 32 31 30 31
58 55 62 62 45 55 57 58 61 65 61 48 49 36 28 22 22 15 18 17 16 16 17 19 20 22 25 28 31 31 32 35 38 40 40 42 43 43 46 49 52 52 55 56
59 57 68 51 59 46 50 49 58 59 53 35 34 39 32 25 17 22 23 24 23 23 24 26 26 27 27 29 32 34 37 40 42 44 45 47 47 49 49 51 53 55 58 63
60 61 64 63 44 46 51 61 53 54 50 32 29 31 36 27 19 17 20 22 23 22 22 30 26 31 31 33 35 38 42 45 46 46 47 48 50 51 52 52 53 54 54 59
57 63 64 47 46 50 52 62 46 51 56 25 25 45 47 30 21 12 16 20 23 24 24 25 30 31 32 35 38 42 45 47 48 47 49 51 52 52 53 51 50 50 51 55
66 66 64 58 63 57 57 53 55 59 48 14 32 26 6 6 5 10 17 21 24 26 30 34 34 35 37 39 42 44 45 47 49 49 49 51 50 52 51 49 49 50 51 56
53 61 66 48 46 51 44 43 41 37 22 8 6 6 10 14 16 19 21 25 28 30 33 39 41 40 41 42 44 44 45 47 49 50 49 50 49 50 51 50 51 53 54 57
48 48 41 38 37 40 34 31 31 25 22 15 12 9 13 17 17 18 24 27 31 33 38 42 44 44 43 45 44 43 43 45 48 49 50 51 51 51 51 52 52 53 55 57
36 39 34 34 33 33 32 28 24 23 19 14 10 14 15 14 18 20 27 31 34 37 39 42 44 46 44 45 44 43 43 44 46 48 50 51 51 53 53 53 54 55 56 58
36 28 23 29 30 29 27 26 22 20 17 16 19 20 18 20 23 26 29 33 36 38 39 42 43 44 46 45 43 42 42 44 45 46 47 49 51 52 53 56 53 53 55 56
36 38 29 29 30 28 26 25 25 23 21 22 24 23 26 27 29 29 31 34 35 37 39 41 43 44 46 45 42 42 41 43 44 44 44 44 44 47 53 54 56 57 57 54
24 21 19 20 28 27 26 27 26 27 26 25 28 27 27 28 31 31 32 34 36 37 40 41 43 44 46 45 42 41 41 42 42 43 44 45 46 47 49 51 54 57 58 58
26 23 26 28 26 28 29 30 31 28 28 29 27 28 28 27 30 31 32 34 36 38 40 42 43 45 46 44 43 43 42 43 42 43 44 45 47 48 49 50 52 54 56 57
28 28 26 25 29 32 32 34 36 35 33 32 31 30 29 27 29 32 34 35 37 40 43 44 44 45 45 43 42 43 43 43 43 43 44 45 46 47 49 50 51 52 53 54
33 32 32 34 34 36 37 37 36 35 34 33 31 29 29 28 29 32 35 37 37 40 43 45 45 47 46 44 43 43 43 43 43 43 44 46 46 47 49 50 51 53 55 57
41 41 40 40 40 40 39 35 33 31 31 30 29 27 26 27 29 32 34 36 38 41 44 46 47 47 46 45 43 43 43 43 44 44 45 46 47 48 48 49 51 52 53 54
37 39 39 37 35 35 35 34 32 31 29 28 26 26 27 28 30 32 34 36 38 42 45 47 47 47 47 46 44 43 43 43 43 44 44 46 47 47 48 48 49 50 50 52
37 35 35 35 33 31 30 29 28 27 26 25 26 28 29 31 33 35 37 39 42 44 49 49 48 47 47 47 45 44 44 44 45 46 46 46 46 47 47 47 48 49 50 51
35 34 34 33 32 29 26 26 26 27 27 26 27 29 31 33 35 37 37 40 42 43 45 47 47 48 48 48 47 46 45 45 45 46 46 47 47 48 48 48 48 49 49 50
32 30 29 28 28 27 26 26 26 27 29 30 30 32 34 36 38 38 40 43 46 46 47 48 49 50 50 49 48 47 47 47 47 47 48 48 48 49 49 49 49 48 49 49
29 29 29 28 28 29 29 29 29 30 31 32 33 35 37 40 41 42 43 44 46 47 49 50 51 51 50 49 49 49 49 49 48 48 48 49 49 50 50 51 52 51 50 50
29 29 29 29 29 30 31 32 32 33 34 36 39 41 44 45 46 49 50 48 47 48 49 50 50 50 50 50 51 51 51 50 50 49 48 48 48 50 52 55 53 51 50 50
28 29 30 30 31 33 34 35 35 36 36 38 40 42 45 48 48 45 44 46 47 48 50 51 52 51 50 50 51 51 50 49 49 48 47 47 48 49 51 53 53 52 51 52
27 28 28 30 33 34 33 33 35 37 39 41 43 45 46 45 49 45 45 46 48 49 50 51 51 49 49 49 49 49 49 49 48 47 47 50 51 51 51 51 51 52 52 51
28 31 34 37 38 37 35 36 39 39 41 44 46 46 46 46 46 47 48 49 49 50 51 50 50 49 49 50 50 50 49 50 50 49 49 50 50 51 52 51 50 50 51 51
33 33 37 41 43 43 41 40 41 41 41 43 47 46 45 46 47 47 48 48 50 51 51 51 50 50 50 52 53 54 52 51 50 50 50 50 51 53 53 52 50 49 52 53
Wind_Direction
277 282 286 287 279 274 269 270 274 273 268 261 265 259 278 308 315 331 320 321 319 309 294 295 296 300 308 317 313 318 320 319 313 308 310 324 317 310 306 302 298 295 289 281
275 281 279 279 277 274 266 262 268 272 264 263 272 273 279 279 291 299 329 326 327 324 318 316 313 312 315 313 315 323 323 323 324 323 320 317 314 313 308 305 300 295 289 286
271 279 280 275 280 281 277 276 273 273 280 279 253 260 270 282 278 285 292 315 320 331 329 326 327 329 333 324 319 320 322 322 322 323 324 320 319 318 315 311 308 306 302 297
268 277 263 279 280 283 284 290 275 276 286 281 267 261 258 264 273 271 285 295 308 307 310 318 329 327 338 329 327 324 323 323 323 324 325 321 322 320 319 317 314 310 307 304
266 266 270 278 282 285 283 276 281 272 281 285 276 271 262 271 275 283 283 299 293 314 326 312 324 319 326 323 324 327 328 327 324 326 329 328 326 323 322 319 318 316 317 314
262 261 260 276 279 294 289 275 293 285 269 298 277 264 258 271 284 304 318 327 313 303 315 306 335 320 325 329 328 330 334 333 328 329 330 329 327 325 324 325 326 325 325 322
255 260 266 278 279 285 274 275 296 289 280 282 286 287 252 308 306 316 325 327 323 329 324 327 317 316 325 326 326 328 332 329 330 334 335 334 333 331 333 334 333 332 331 327
264 260 264 295 286 271 284 300 313 319 318 291 299 312 252 268 273 292 304 317 322 326 325 330 327 325 323 321 327 330 333 338 339 340 341 342 341 341 340 339 338 336 334 331
270 271 288 301 304 302 305 301 313 331 330 326 285 289 280 280 298 323 312 313 321 323 327 330 334 333 328 335 339 343 346 347 348 349 350 349 348 344 343 344 343 342 341 340
284 275 293 303 311 312 320 318 321 327 338 3 2 20 2 321 326 322 339 335 334 331 332 333 337 342 342 338 339 344 347 349 350 354 354 354 354 353 350 347 343 342 342 341
290 292 312 317 314 317 324 337 338 339 328 320 302 309 318 309 306 313 318 327 336 341 345 348 345 343 343 343 344 344 344 346 347 352 355 359 359 357 358 360 357 350 349 349
285 286 300 311 320 330 324 325 334 330 324 317 314 318 307 309 311 318 325 328 337 343 349 351 351 349 348 348 350 347 348 347 349 351 351 352 351 353 3 3 3 4 3 0
297 331 351 346 348 347 342 340 339 337 329 322 320 327 333 325 330 338 337 340 342 345 352 352 352 354 353 359 1 356 354 352 351 351 349 348 347 347 346 350 359 2 2 2
306 318 333 327 327 343 344 347 344 332 325 325 332 335 333 337 342 343 343 346 349 352 352 352 353 352 351 355 356 356 354 353 352 350 350 349 348 348 348 347 347 349 355 357
329 344 356 346 345 344 342 349 340 336 322 325 327 326 327 332 335 339 342 346 348 349 348 346 347 346 346 351 351 350 349 349 349 349 349 350 350 350 350 350 350 349 348 349
312 333 331 333 333 327 333 339 336 339 341 329 328 338 343 345 342 344 344 344 346 346 343 342 341 339 342 345 347 347 346 347 347 348 348 348 349 349 349 349 349 347 346 345
302 309 316 321 324 329 331 341 350 354 356 350 351 350 354 351 348 344 344 345 346 344 341 341 341 342 343 344 345 344 344 344 345 346 346 347 347 347 347 346 346 346 345 346
322 321 323 325 327 330 335 335 339 345 346 349 356 359 356 349 344 342 342 342 343 342 340 338 339 340 341 342 343 343 343 344 345 345 345 345 345 344 345 345 345 346 347 348
325 326 329 330 333 337 339 341 345 350 350 347 347 345 344 343 340 338 337 336 334 333 333 336 339 341 343 344 344 345 344 344 343 342 342 341 342 343 344 345 344 344 346 345
333 333 328 332 335 341 348 349 353 355 354 356 356 350 345 341 339 338 339 338 339 338 339 341 341 341 341 342 343 342 341 341 340 339 339 338 338 339 340 342 342 342 343 343
349 359 0 2 360 360 1 1 1 358 356 354 350 347 344 342 340 337 335 333 334 337 338 338 339 338 339 340 341 341 340 340 338 336 336 336 336 337 338 339 339 339 338 338
12 14 13 14 7 6 6 6 6 3 0 357 353 348 343 339 338 337 337 334 334 336 338 339 339 339 339 339 339 339 338 338 337 336 336 335 336 336 335 335 334 334 334 335
19 17 14 10 5 0 357 355 355 354 350 346 343 339 336 335 333 328 326 333 335 335 336 336 337 338 338 338 337 336 336 335 334 335 335 335 335 334 333 331 333 333 333 334
16 9 4 1 358 352 347 348 348 348 346 344 342 342 338 333 334 336 337 336 336 335 334 334 334 335 336 337 337 337 337 336 335 335 335 335 334 335 334 332 332 332 331 330
20 16 12 2 354 349 348 349 347 344 341 340 338 337 337 336 332 333 333 333 333 333 333 334 335 335 335 336 336 336 336 337 337 336 334 331 331 331 331 332 332 332 332 331
8 359 353 349 346 344 342 340 335 335 334 333 333 335 335 336 335 333 332 331 331 331 331 332 333 334 334 334 334 333 333 332 332 332 332 332 332 332 331 331 331 332 332 333
3 2 353 349 348 348 344 338 334 331 331 331 330 333 334 335 335 334 334 332 332 331 331 331 331 330 331 330 329 329 330 330 330 330 331 331 332 331 331 330 330 330 330 329